Location: Fort Wayne
(41.1310°N, 85.1290°W)
Time: 13:55:50
(UTC-04:00)

Helios 1B - Visible Passes

Search period start: 26 July 2016 00:00
Search period end: 05 August 2016 00:00
Orbit: 622 x 623 km, 98.1° (Epoch: 26 July)

Date Brightness Start Highest point End Pass type
(mag) Time Alt. Az. Time Alt. Az. Time Alt. Az.
26 Jul 6.9 00:05:12 13° ENE 00:05:15 13° ENE 00:07:09 10° NE visible
26 Jul 5.9 01:42:25 37° NW 01:42:25 37° NW 01:45:10 10° NNW visible
27 Jul 6.6 00:23:33 19° ENE 00:23:33 19° ENE 00:26:12 10° NNE visible
27 Jul 6.3 02:00:46 27° NW 02:00:46 27° NW 02:03:04 10° NNW visible
28 Jul 6.2 00:41:54 26° NE 00:41:54 26° NE 00:44:47 10° N visible
28 Jul 6.7 02:19:07 18° WNW 02:19:07 18° WNW 02:20:46 10° NW visible
29 Jul 5.9 01:00:15 34° NNE 01:00:15 34° NNE 01:03:10 10° N visible
29 Jul 7.1 02:37:29 12° WNW 02:37:29 12° WNW 02:38:09 10° NW visible
30 Jul 5.9 01:18:37 38° N 01:18:37 38° N 01:21:24 10° N visible
30 Jul 7.1 23:59:45 11° ENE 23:59:45 11° ENE 00:00:48 10° NE visible
31 Jul 6.1 01:36:58 34° NNW 01:36:58 34° NNW 01:39:30 10° NNW visible
01 Aug 6.8 00:18:06 16° NE 00:18:06 16° NE 00:20:14 10° NNE visible
01 Aug 6.4 01:55:19 26° NW 01:55:19 26° NW 01:57:27 10° NNW visible
02 Aug 6.5 00:36:28 22° NE 00:36:28 22° NE 00:38:56 10° NNE visible
02 Aug 6.8 02:13:41 19° NW 02:13:41 19° NW 02:15:14 10° NW visible
03 Aug 6.3 00:54:49 29° NNE 00:54:49 29° NNE 00:57:23 10° N visible
03 Aug 7.2 02:32:03 13° NW 02:32:03 13° NW 02:32:45 10° NW visible
04 Aug 6.2 01:13:11 32° N 01:13:11 32° N 01:15:39 10° N visible
